Location: �mondeville
(49.4591°N, 1.3431°W)
Time: 09:58:09
(UTC+00:00)

Cosmos 468 Rocket - Pass Details

Date: 22 October 2019
Orbit: 745 x 779 km, 74.0° (Epoch: 18 November)

Event Time Altitude Azimuth Distance (km) Brightness Sun altitude
Rises 05:43:49 0° 331° (NNW) 3,218 6.9 -9.3°
Reaches altitude 10° 05:46:19 10° 324° (NW) 2,284 6.1 -8.9°
Maximum altitude 05:51:05 39° 256° (WSW) 1,107 4.4 -8.1°
Drops below altitude 10° 05:55:49 10° 188° (S) 2,257 6.5 -7.4°
Sets 05:58:17 0° 181° (S) 3,175 7.3 -7.0°
